Back to catalog

CSG-1

AliveScienceSSO
NORAD 44873·PAYLOAD·🇮🇹 Italy

Launched Dec 18, 2019 from Guiana Space Centre

Loading…

Next Passes (next 24 hours)

TLE

FreshSource: Space-Track

Epoch: Sep 14, 2026, 13:41 UTC

1 44873U 19092A   26257.57035954  .00000281  00000-0  41860-4 0  9991
2 44873  97.8917  79.9012 0001391  86.3584 273.7788 14.82157480364718

Track CSG-1 in real time with AllMySat

Download on the App Store